Location: Malvern Link
(52.1333°N, 2.3000°W)
Time: 11:20:55
(UTC+00:00)

Cosmos 2082 Rocket - Pass Details

Date: 18 September 2020
Orbit: 834 x 853 km, 71.0° (Epoch: 30 October)

Event Time Altitude Azimuth Distance (km) Brightness Sun altitude
Rises 18:52:55 0° 323° (NW) 3,393 6.2 -6.4°
Reaches altitude 10° 18:56:45 10° 349° (N) 2,457 4.9 -7.0°
Maximum altitude 18:59:34 14° 19° (NNE) 2,196 4.3 -7.4°
Drops below altitude 10° 19:02:22 10° 49° (NE) 2,455 4.3 -7.9°
Enters shadow 19:04:48 - 68° (ENE) 3,000 4.6 -8.2°
